Weather in Suvorovskaya

Russia / Stavropol Krai     44°11′51″N   42°38′59″E
temp.,
°C
wind,
m/s
gust,
m/s
humid.,
%
clouds,
%
prec.,
mm/h
press.,
hPa
HPBL,
m
21 april, wed
wed2100:00+14nw2669100 0.1 1012487
03:00+12n1264100 0.1 101499
06:00+11ne457399 0.1 1016382
09:00+12ene446793 0.1 1017817
12:00+12ne4577100 1.8 1018588
15:00+11n4485100 2.1 1019559
18:00+10ne2588100 0.2 1020424
21:00+10ene3689100 0.4 1022419
22 april, thu
thu2200:00+10ene249097 0.1 1021217
03:00+10ene2391100 0.1 102180
06:00+10e3590100 0.0 1021203
09:00+10ese5890100 1.1 1022457
12:00+13e5667100 0.1 10211136
15:00+13ese5666100 0.1 10211182
18:00+11e4779100 0.1 1021397
21:00+10ene2487100 0.1 1021220
23 april, fri
fri2300:00+9ne2498100 3.9 1022203
03:00+9nw1297100 5.4 1022119
06:00+9nw2593100 2.4 1023297
09:00+12wnw467526 2.6 1023831
12:00+16nw455561 0.6 10211747
15:00+17nnw554567 0.6 10202075
18:00+15nne236016 0.0 102192
21:00+10ese22775 0.0 102022
24 april, sat
sat2400:00+9se228378 0.0 101914
03:00+10se2281100 0.0 101824
06:00+10sw1184100 0.1 101913
09:00+15wnw34575 0.1 1018849
12:00+18nnw344882 0.0 10181831
15:00+16nw2358100 0.0 1018264
18:00+14wnw1163100 0.0 101913
21:00+13nw1168100 0.0 102016
25 april, sun
sun2500:00+12nw117198 0.0 102016
03:00+11nnw1172100 0.0 101920
06:00+9se1190100 2.3 1020114
09:00+10e3492100 3.3 1018318
12:00+11e4791100 0.6 1016543
15:00+12nne3484100 0.8 1015481
18:00+10nne3696100 0.2 1016401
21:00+9ne3697100 0.5 1017613